Weather History for La Crosse, WI

Change the Weather History Date:

Wednesday, April 9, 2014

  Actual Average Record
Temperature  
Mean Temperature 49 °F 46 °F  
Max Temperature 69 °F 56 °F 79 °F (1887)
Min Temperature 29 °F 35 °F 17 °F (1928)
Degree Days  
Heating Degree Days 16 19  
Month to date heating degree days 206 191  
Since 1 July heating degree days 7551 6644  
Cooling Degree Days 0 0  
Month to date cooling degree days 0 0  
Year to date cooling degree days 0 0  
Moisture  
Dew Point 30 °F    
Average Humidity 59    
Maximum Humidity 92    
Minimum Humidity 26    
Precipitation  
Precipitation 0.00 in 0.10 in 1.83 in (2013)
Month to date precipitation 0.56 0.86  
Year to date precipitation 4.23 5.07  
Snow  
Snow 0.00 in 0.10 in 10.30 in (1973)
Month to date snowfall 0.6 0.8  
Since 1 July snowfall 47.2 42.4  
Snow Depth 0.00 in    
Sea Level Pressure  
Sea Level Pressure 29.84 in    
Wind  
Wind Speed 12 mph (South)    
Max Wind Speed 24 mph    
Max Gust Speed 30 mph    
Visibility 10 miles    
Events      
T = Trace of Precipitation, MM = Missing Value Source: NWS Daily Summary

Daily Weather History Graph

Daily Weather History Graph

Search for Another Location

Airport:

Trip Planner

Search our weather history database for the weather conditions in past years. The results will help you decide how hot, cold, wet, or windy it might be!

Date:

Astronomy

Apr. 09, 2014 Rise Set
Actual Time 6:32 AM CDT 7:41 PM CDT
Civil Twilight 6:02 AM CDT 8:11 PM CDT
Nautical Twilight 5:27 AM CDT 8:46 PM CDT
Astronomical Twilight 4:50 AM CDT 9:24 PM CDT
Moon 2:20 PM CDT (4/9) 3:31 AM CDT (4/9)
Length of Visible Light 14h 08m
Length of Day
13h 09m
Waxing Gibbous, 72% of the Moon is Illuminated
Apr 9
Waxing Gibbous
Apr 15
Full
Apr 22
Last Quarter
Apr 29
New
May 6
First Quarter

Hourly Weather History & Observations

Time (CDT) Temp. Windchill Dew Point Humidity Pressure Visibility Wind Dir Wind Speed Gust Speed Precip Events Conditions
12:53 AM 34.0 °F - 28.0 °F 79% 30.00 in 10.0 mi Calm Calm - N/A   Clear
1:53 AM 34.0 °F 31.0 °F 27.0 °F 75% 30.00 in 10.0 mi SE 3.5 mph - N/A   Clear
2:53 AM 32.0 °F - 26.1 °F 79% 29.99 in 10.0 mi Calm Calm - N/A   Clear
3:53 AM 30.9 °F - 27.0 °F 85% 29.99 in 10.0 mi Calm Calm - N/A   Clear
4:53 AM 30.9 °F 26.2 °F 27.0 °F 85% 29.99 in 10.0 mi SSE 4.6 mph - N/A   Clear
5:53 AM 30.9 °F 24.3 °F 27.0 °F 85% 30.00 in 10.0 mi SSE 6.9 mph - N/A   Clear
6:53 AM 30.9 °F 24.3 °F 28.0 °F 89% 30.01 in 10.0 mi SSE 6.9 mph - N/A   Clear
7:53 AM 36.0 °F 28.0 °F 30.9 °F 82% 29.99 in 10.0 mi South 11.5 mph - N/A   Clear
8:53 AM 41.0 °F 37.1 °F 30.9 °F 67% 30.00 in 10.0 mi South 5.8 mph - N/A   Clear
9:53 AM 48.0 °F - 32.0 °F 54% 29.97 in 10.0 mi South 9.2 mph - N/A   Clear
10:53 AM 54.0 °F - 30.9 °F 41% 29.95 in 10.0 mi South 12.7 mph - N/A   Clear
11:53 AM 57.0 °F - 30.9 °F 37% 29.90 in 10.0 mi South 16.1 mph - N/A   Mostly Cloudy
12:53 PM 60.1 °F - 30.0 °F 32% 29.85 in 10.0 mi South 13.8 mph - N/A   Scattered Clouds
1:53 PM 63.0 °F - 30.0 °F 29% 29.81 in 10.0 mi SSE 17.3 mph - N/A   Mostly Cloudy
2:53 PM 62.1 °F - 30.0 °F 30% 29.76 in 10.0 mi South 19.6 mph - N/A   Partly Cloudy
3:53 PM 66.9 °F - 32.0 °F 27% 29.75 in 10.0 mi SSW 21.9 mph 27.6 mph N/A   Clear
4:53 PM 68.0 °F - 32.0 °F 26% 29.72 in 10.0 mi SSW 15.0 mph 28.8 mph N/A   Clear
5:53 PM 68.0 °F - 32.0 °F 26% 29.69 in 10.0 mi SSW 18.4 mph 27.6 mph N/A   Clear
6:53 PM 66.0 °F - 30.9 °F 27% 29.67 in 10.0 mi South 16.1 mph - N/A   Clear
7:53 PM 63.0 °F - 32.0 °F 31% 29.65 in 10.0 mi South 13.8 mph - N/A   Clear
8:53 PM 61.0 °F - 33.1 °F 35% 29.65 in 10.0 mi South 13.8 mph - N/A   Clear
9:53 PM 59.0 °F - 33.1 °F 38% 29.62 in 10.0 mi South 13.8 mph - N/A   Clear
10:53 PM 59.0 °F - 33.1 °F 38% 29.60 in 10.0 mi South 13.8 mph - N/A   Clear
11:53 PM 59.0 °F - 34.0 °F 39% 29.57 in 10.0 mi South 16.1 mph - N/A   Clear